sat.trackr.live / text

‹ back to catalog

SITRO-AIS 20

NORAD 61758 · 2024-199Z

PAYLOAD ACTIVE UNKNOWN

§ Identity

Operator
Country
CIS
Launch date
2024-11-04
Launch site
VOSTO
Launch vehicle
Mass (kg)
RCS (m²)

External: N2YO · Heavens-Above · Gunter

§ Orbital elements

Epoch: 2026-09-22T21:12:43.054560Z

Period
96.11 min
Inclination
97.3177°
Eccentricity
0.0007772
Mean motion
14.98346064 rev/d
Perigee alt
566.6 km
Apogee alt
577.4 km
Semi-major
6,950.1 km
B*
1.7620e-4
RAAN
99.4202°
Arg perigee
98.0016°
Mean anomaly
262.2090°
Rev number
14,976

§ Raw data

SITRO-AIS 201 61758U 24199Z   26265.88383165  .00002046  00000+0  17620-3 0  99952 61758  97.3177  99.4202 0007772  98.0016 262.2090 14.98346064149769

JSON: /api/v1/satellites/61758 · /tle

For live sub-satellite position, see the globe view (requires WebGL).

§ Visibility from observer

Set your observer location to see the next 7 days of passes ≥ 10°. The values pass through the URL so the page stays shareable.

No JS? Fill the form by hand. The geolocation button needs JavaScript.

§ Radio — SatNOGS DB

ModeDescriptionDownlinkUplink
GMSK USP Mode U - GMSK2k4 - USP 401.155 MHz

1 transmitter · refreshed weekly from db.satnogs.org